TimeAEST,TemperatureF,Dew PointF,Humidity,Sea Level PressureIn,VisibilityMPH,Wind Direction,Wind SpeedMPH,Gust SpeedMPH,PrecipitationIn,Events,Conditions,WindDirDegrees,DateUTC
12:00 AM,68,64,82,30.15,,South,15.0,,,,Overcast,170,2013-09-03 14:00:00
12:00 AM,68.0,64.4,88,30.12,6.2,South,15.0,-,N/A,Rain,Light Rain Showers,170,2013-09-03 14:00:00
12:30 AM,68.0,62.6,83,30.12,6.2,SSE,15.0,-,N/A,,Scattered Clouds,160,2013-09-03 14:30:00
12:55 AM,69.8,62.6,78,30.12,6.2,SSE,18.4,32.2,N/A,Rain,Light Rain Showers,160,2013-09-03 14:55:00
1:00 AM,69,62,74,30.14,,SSE,23.0,,,,,150,2013-09-03 15:00:00
1:00 AM,69.8,62.6,78,30.12,6.2,SSE,23.0,-,N/A,,Scattered Clouds,150,2013-09-03 15:00:00
1:21 AM,69.8,60.8,73,30.12,6.2,SSE,20.7,32.2,N/A,,Scattered Clouds,150,2013-09-03 15:21:00
1:30 AM,69.8,60.8,73,30.12,6.2,SSE,19.6,-,N/A,,Scattered Clouds,150,2013-09-03 15:30:00
1:47 AM,68.0,60.8,78,30.12,6.2,SSE,19.6,31.1,N/A,,Scattered Clouds,150,2013-09-03 15:47:00
2:00 AM,69.8,62.6,78,30.09,6.2,SSE,15.0,-,N/A,Rain,Light Rain Showers,150,2013-09-03 16:00:00
2:16 AM,68.0,64.4,88,30.09,6.2,SSE,17.3,31.1,N/A,Rain,Light Rain Showers,150,2013-09-03 16:16:00
2:30 AM,68.0,62.6,83,30.09,6.2,SSE,25.3,-,N/A,Rain,Light Rain Showers,150,2013-09-03 16:30:00
2:38 AM,68.0,64.4,88,30.12,3.7,SE,24.2,-,N/A,Rain,Light Rain Showers,140,2013-09-03 16:38:00
3:00 AM,67,64,85,30.11,5,SSE,11.5,,,,Overcast,160,2013-09-03 17:00:00
3:00 AM,66.2,64.4,94,30.09,3.7,SSE,11.5,-,N/A,Rain,Light Rain Showers,160,2013-09-03 17:00:00
3:29 AM,68.0,62.6,83,30.09,6.2,SSE,19.6,31.1,N/A,Rain,Light Rain Showers,150,2013-09-03 17:29:00
4:00 AM,67,64,88,30.11,,SSE,20.7,,,,,150,2013-09-03 18:00:00
4:00 AM,68.0,64.4,88,30.09,3.1,SSE,20.7,-,N/A,Rain,Rain Showers,150,2013-09-03 18:00:00
4:30 AM,68.0,62.6,83,30.09,6.2,SSE,23.0,-,N/A,Rain,Light Rain Showers,150,2013-09-03 18:30:00
4:57 AM,69.8,62.6,78,30.09,6.2,SSE,24.2,35.7,N/A,Rain,Light Rain Showers,150,2013-09-03 18:57:00
5:00 AM,68.0,62.6,83,30.09,6.2,SE,24.2,35.7,N/A,Rain,Light Rain Showers,140,2013-09-03 19:00:00
5:06 AM,68.0,62.6,83,30.09,3.7,SE,26.5,-,N/A,Rain,Light Rain Showers,130,2013-09-03 19:06:00
5:09 AM,68.0,64.4,88,30.09,3.7,SE,25.3,36.8,N/A,Rain,Light Rain Showers,130,2013-09-03 19:09:00
5:30 AM,68.0,62.6,83,30.09,6.2,SSE,24.2,-,N/A,Rain,Light Rain Showers,160,2013-09-03 19:30:00
6:00 AM,68,62,74,30.12,12,South,16.1,,,Rain,Light Rain Showers,170,2013-09-03 20:00:00
6:00 AM,68.0,62.6,83,30.09,6.2,South,16.1,-,N/A,,Mostly Cloudy,170,2013-09-03 20:00:00
6:30 AM,68.0,60.8,78,30.12,6.2,SSE,16.1,-,N/A,,Mostly Cloudy,160,2013-09-03 20:30:00
6:38 AM,69.8,59.0,68,30.12,6.2,SSE,19.6,33.4,N/A,,Mostly Cloudy,150,2013-09-03 20:38:00
7:00 AM,69.8,59.0,68,30.12,6.2,SSE,23.0,-,N/A,,Mostly Cloudy,150,2013-09-03 21:00:00
7:20 AM,71.6,59.0,64,30.12,6.2,SE,24.2,36.8,N/A,,Mostly Cloudy,140,2013-09-03 21:20:00
7:30 AM,71.6,59.0,64,30.12,6.2,SE,27.6,-,N/A,,Mostly Cloudy,140,2013-09-03 21:30:00
8:00 AM,73.4,57.2,57,30.12,6.2,SE,20.7,-,N/A,,Scattered Clouds,140,2013-09-03 22:00:00
8:08 AM,75.2,53.6,47,30.12,6.2,SE,19.6,33.4,N/A,,Scattered Clouds,130,2013-09-03 22:08:00
8:30 AM,75.2,57.2,53,30.15,6.2,SE,25.3,-,N/A,,Partly Cloudy,130,2013-09-03 22:30:00
9:00 AM,76,58,44,30.16,19,SSE,26.5,,,,Partly Cloudy,150,2013-09-03 23:00:00
9:00 AM,75.2,59.0,57,30.15,6.2,SSE,26.5,-,N/A,,Partly Cloudy,150,2013-09-03 23:00:00
9:30 AM,75.2,60.8,61,30.15,6.2,SE,25.3,-,N/A,,Scattered Clouds,140,2013-09-03 23:30:00
9:47 AM,71.6,62.6,73,30.15,6.2,SE,23.0,34.5,N/A,Rain,Light Rain Showers,130,2013-09-03 23:47:00
9:51 AM,71.6,62.6,73,30.15,6.2,SSE,26.5,-,N/A,,Mostly Cloudy,160,2013-09-03 23:51:00
10:00 AM,74,62,57,30.17,,SSE,23.0,,,,,150,2013-09-04 00:00:00
10:04 AM,75.2,60.8,61,30.15,6.2,SSE,20.7,32.2,N/A,,Mostly Cloudy,150,2013-09-04 00:04:00
10:30 AM,75.2,60.8,61,30.15,6.2,SE,24.2,-,N/A,,Mostly Cloudy,140,2013-09-04 00:30:00
10:47 AM,69.8,64.4,83,30.15,5.0,SE,27.6,42.6,N/A,Rain,Light Rain Showers,130,2013-09-04 00:47:00
11:00 AM,73.4,64.4,73,30.15,6.2,ESE,24.2,-,N/A,,Mostly Cloudy,120,2013-09-04 01:00:00
11:14 AM,75.2,60.8,61,30.15,6.2,ESE,24.2,38.0,N/A,,Mostly Cloudy,120,2013-09-04 01:14:00
11:30 AM,75.2,59.0,57,30.15,6.2,SE,26.5,-,N/A,,Scattered Clouds,130,2013-09-04 01:30:00
12:00 PM,79,57,36,30.14,19,SE,29.9,,,,Partly Cloudy,130,2013-09-04 02:00:00
12:00 PM,78.8,57.2,47,30.12,6.2,SE,29.9,-,N/A,,Partly Cloudy,130,2013-09-04 02:00:00
12:07 PM,78.8,57.2,47,30.12,6.2,SE,28.8,40.3,N/A,,Partly Cloudy,130,2013-09-04 02:07:00
12:30 PM,78.8,57.2,47,30.12,6.2,SE,26.5,-,N/A,,Scattered Clouds,130,2013-09-04 02:30:00
12:46 PM,80.6,53.6,39,30.12,6.2,ESE,28.8,41.4,N/A,,Partly Cloudy,120,2013-09-04 02:46:00
1:00 PM,78.8,55.4,44,30.12,6.2,ESE,29.9,-,N/A,,Partly Cloudy,120,2013-09-04 03:00:00
1:30 PM,78.8,51.8,39,30.12,6.2,SE,31.1,-,N/A,,Partly Cloudy,130,2013-09-04 03:30:00
2:00 PM,80.6,53.6,39,30.09,6.2,SE,29.9,-,N/A,,Partly Cloudy,130,2013-09-04 04:00:00
2:30 PM,78.8,53.6,42,30.09,6.2,SE,23.0,-,N/A,,Partly Cloudy,130,2013-09-04 04:30:00
3:00 PM,79,54,32,30.10,12,SE,23.0,,,,Partly Cloudy,140,2013-09-04 05:00:00
3:00 PM,78.8,55.4,44,30.09,6.2,SE,23.0,-,N/A,,Scattered Clouds,140,2013-09-04 05:00:00
3:12 PM,71.6,60.8,69,30.09,5.0,SE,24.2,38.0,N/A,Rain,Light Rain Showers,130,2013-09-04 05:12:00
3:30 PM,68.0,62.6,83,30.12,6.2,SSE,18.4,-,N/A,,Mostly Cloudy,160,2013-09-04 05:30:00
4:00 PM,69,60,67,30.13,,SE,23.0,,,,,140,2013-09-04 06:00:00
4:00 PM,69.8,60.8,73,30.12,6.2,SE,23.0,-,N/A,,Mostly Cloudy,140,2013-09-04 06:00:00
4:09 PM,69.8,62.6,78,30.12,6.2,South,10.4,-,N/A,,Mostly Cloudy,180,2013-09-04 06:09:00
4:30 PM,71.6,60.8,69,30.09,6.2,SSW,10.4,-,N/A,,Scattered Clouds,200,2013-09-04 06:30:00
5:00 PM,71.6,60.8,69,30.09,6.2,South,8.1,-,N/A,,Partly Cloudy,180,2013-09-04 07:00:00
5:30 PM,68.0,62.6,83,30.12,6.2,South,12.7,-,N/A,,Mostly Cloudy,170,2013-09-04 07:30:00
6:00 PM,69,65,81,30.13,,SSE,17.3,,,,Overcast,150,2013-09-04 08:00:00
6:00 PM,69.8,64.4,83,30.12,6.2,SSE,17.3,-,N/A,,Mostly Cloudy,150,2013-09-04 08:00:00
6:12 PM,69.8,62.6,78,30.12,6.2,SSE,18.4,29.9,N/A,,Scattered Clouds,150,2013-09-04 08:12:00
6:30 PM,69.8,60.8,73,30.12,6.2,SSE,18.4,-,N/A,,Scattered Clouds,150,2013-09-04 08:30:00
7:00 PM,68,63,78,30.16,,SSE,17.3,,,,,150,2013-09-04 09:00:00
7:02 PM,68.0,62.6,83,30.15,5.6,SSE,20.7,38.0,N/A,Rain,Light Rain Showers,150,2013-09-04 09:02:00
7:05 PM,68.0,62.6,83,30.15,5.6,SE,34.5,-,N/A,,Mostly Cloudy,130,2013-09-04 09:05:00
7:20 PM,68.0,64.4,88,30.15,5.6,SE,23.0,-,N/A,Rain,Light Rain Showers,140,2013-09-04 09:20:00
7:30 PM,66.2,62.6,88,30.15,6.2,SSE,24.2,-,N/A,,Mostly Cloudy,150,2013-09-04 09:30:00
7:49 PM,66.2,60.8,83,30.15,6.2,South,15.0,-,N/A,,Mostly Cloudy,190,2013-09-04 09:49:00
8:00 PM,66.2,60.8,83,30.15,6.2,South,15.0,-,N/A,,Mostly Cloudy,170,2013-09-04 10:00:00
8:30 PM,64.4,62.6,94,30.15,6.2,South,11.5,-,N/A,Rain,Light Rain Showers,170,2013-09-04 10:30:00
8:51 PM,66.2,62.6,88,30.18,3.1,SE,15.0,-,N/A,Rain,Rain Showers,130,2013-09-04 10:51:00
8:56 PM,66.2,64.4,94,30.15,3.7,ESE,17.3,31.1,N/A,Rain,Light Rain Showers,120,2013-09-04 10:56:00
9:00 PM,67,64,89,30.18,2,ESE,19.6,,,,Overcast,120,2013-09-04 11:00:00
9:00 PM,66.2,64.4,94,30.18,5.0,ESE,19.6,33.4,N/A,Rain,Light Rain Showers,120,2013-09-04 11:00:00
9:30 PM,66.2,64.4,94,30.18,5.6,SSE,15.0,-,N/A,Rain,Light Rain Showers,150,2013-09-04 11:30:00
10:00 PM,67,63,81,30.18,,SSE,13.8,,,,,150,2013-09-04 12:00:00
10:00 PM,66.2,62.6,88,30.15,6.2,SSE,13.8,-,N/A,,Mostly Cloudy,150,2013-09-04 12:00:00
10:30 PM,68.0,62.6,83,30.15,6.2,SSE,23.0,-,N/A,,Mostly Cloudy,150,2013-09-04 12:30:00
10:52 PM,66.2,62.6,88,30.15,6.2,SSE,18.4,29.9,N/A,,Mostly Cloudy,160,2013-09-04 12:52:00
11:00 PM,68.0,62.6,83,30.15,6.2,SSE,16.1,-,N/A,,Mostly Cloudy,160,2013-09-04 13:00:00
11:26 PM,66.2,62.6,88,30.15,3.7,SSE,18.4,-,N/A,Rain,Light Rain Showers,160,2013-09-04 13:26:00
11:30 PM,66.2,62.6,88,30.15,3.7,SSE,17.3,-,N/A,Rain,Light Rain Showers,160,2013-09-04 13:30:00
11:47 PM,66.2,62.6,88,30.15,5.0,ESE,17.3,31.1,N/A,Rain,Light Rain Showers,110,2013-09-04 13:47:00